| time (UTC) | temp C | wind direction | speed KPH | gust KPH | rain 1hr cm | rain 24hr cm | rain mn cm | humidity % | barometer mb |
| 20260906193055 | 24 | 87 | 3.2 | 16.1 | 0.00 | 0.00 | 0.00 | 61 | 1016.3 |
| 20260906193002 | 24 | 120 | 3.2 | 16.1 | 0.00 | 0.00 | 0.00 | 62 | 1016.3 |
| 20260906191602 | 24 | 94 | 4.8 | 22.5 | 0.00 | 0.00 | 0.00 | 63 | 1016.4 |
| 20260906190005 | 24 | 248 | 6.4 | 14.5 | 0.00 | 0.00 | 0.00 | 59 | 1016.6 |
| 20260906184505 | 24 | 232 | 3.2 | 12.9 | 0.00 | 0.00 | 0.00 | 64 | 1016.5 |
| 20260906183010 | 24 | 82 | 3.2 | 12.9 | 0.00 | 0.00 | 0.00 | 67 | 1016.6 |
| 20260906181530 | 23 | 183 | 6.4 | 19.3 | 0.00 | 0.00 | 0.00 | 64 | 1016.6 |
| 20260906180002 | 23 | 242 | 6.4 | 14.5 | 0.00 | 0.00 | 0.00 | 66 | 1016.8 |
| 20260906174507 | 23 | 165 | 6.4 | 16.1 | 0.00 | 0.00 | 0.00 | 64 | 1016.9 |
| 20260906173009 | 23 | 258 | 4.8 | 17.7 | 0.00 | 0.00 | 0.00 | 65 | 1016.9 |
| 20260906171511 | 23 | 277 | 3.2 | 17.7 | 0.00 | 0.00 | 0.00 | 65 | 1017.0 |
| 20260906170057 | 23 | 11 | 4.8 | 20.9 | 0.00 | 0.03 | 0.00 | 67 | 1017.1 |
| 20260906164547 | 23 | 142 | 4.8 | 14.5 | 0.00 | 0.03 | 0.00 | 70 | 1017.2 |
| 20260906163050 | 23 | 99 | 3.2 | 14.5 | 0.00 | 0.03 | 0.00 | 68 | 1017.1 |
| 20260906161614 | 23 | 344 | 4.8 | 17.7 | 0.00 | 0.03 | 0.00 | 73 | 1017.3 |
| 20260906160053 | 22 | 159 | 1.6 | 14.5 | 0.00 | 0.03 | 0.00 | 72 | 1017.4 |
| 20260906154552 | 22 | 55 | 3.2 | 12.9 | 0.00 | 0.03 | 0.00 | 72 | 1017.5 |
| 20260906153110 | 22 | 159 | 4.8 | 14.5 | 0.00 | 0.03 | 0.00 | 72 | 1017.4 |
| 20260906151557 | 22 | 80 | 3.2 | 14.5 | 0.00 | 0.03 | 0.00 | 76 | 1017.4 |
| 20260906150109 | 21 | 163 | 3.2 | 14.5 | 0.00 | 0.03 | 0.00 | 76 | 1017.2 |
| 20260906144558 | 22 | 120 | 0.0 | 6.4 | 0.00 | 0.03 | 0.00 | 79 | 1017.3 |
| 20260906143004 | 21 | 125 | 4.8 | 14.5 | 0.00 | 0.03 | 0.00 | 80 | 1017.2 |
| 20260906141506 | 21 | 131 | 4.8 | 11.3 | 0.00 | 0.03 | 0.00 | 79 | 1017.1 |
| 20260906140005 | 21 | 177 | 1.6 | 11.3 | 0.00 | 0.03 | 0.00 | 82 | 1017.1 |
| 20260906134508 | 20 | 147 | 1.6 | 6.4 | 0.00 | 0.03 | 0.00 | 84 | 1016.9 |
| 20260906133011 | 19 | 79 | 3.2 | 11.3 | 0.00 | 0.03 | 0.00 | 84 | 1016.9 |
| 20260906131514 | 18 | 319 | 3.2 | 6.4 | 0.00 | 0.03 | 0.00 | 85 | 1016.9 |
| 20260906130022 | 18 | 310 | 1.6 | 8.0 | 0.00 | 0.03 | 0.00 | 86 | 1016.7 |
| 20260906124516 | 18 | 326 | 3.2 | 8.0 | 0.00 | 0.03 | 0.00 | 87 | 1016.5 |
| 20260906123023 | 18 | 351 | 1.6 | 6.4 | 0.00 | 0.03 | 0.00 | 87 | 1016.3 |
| 20260906121533 | 17 | 356 | 0.0 | 9.7 | 0.00 | 0.03 | 0.00 | 88 | 1016.1 |
| 20260906120023 | 17 | 308 | 0.0 | 4.8 | 0.00 | 0.23 | 0.00 | 89 | 1016.0 |
| 20260906114531 | 17 | 319 | 1.6 | 4.8 | 0.00 | 0.23 | 0.00 | 88 | 1015.8 |
| 20260906113008 | 17 | 328 | 0.0 | 4.8 | 0.00 | 0.23 | 0.00 | 88 | 1015.6 |
| 20260906111510 | 17 | 339 | 1.6 | 4.8 | 0.00 | 0.23 | 0.00 | 86 | 1015.3 |
| 20260906110012 | 18 | 327 | 0.0 | 3.2 | 0.00 | 0.38 | 0.00 | 86 | 1015.1 |
| 20260906104509 | 18 | 308 | 0.0 | 0.0 | 0.00 | 0.38 | 0.00 | 85 | 1015.1 |
| 20260906103016 | 18 | 318 | 0.0 | 6.4 | 0.00 | 0.38 | 0.00 | 85 | 1015.0 |
| 20260906101518 | 18 | 233 | 0.0 | 4.8 | 0.00 | 0.38 | 0.00 | 84 | 1015.0 |
| 20260906100028 | 18 | 342 | 1.6 | 4.8 | 0.00 | 0.53 | 0.00 | 84 | 1015.1 |
| 20260906094520 | 18 | 42 | 0.0 | 6.4 | 0.00 | 0.53 | 0.00 | 82 | 1014.8 |
| 20260906093004 | 18 | 208 | 1.6 | 6.4 | 0.00 | 0.53 | 0.00 | 82 | 1014.7 |
| 20260906091504 | 18 | 86 | 1.6 | 6.4 | 0.00 | 0.53 | 0.00 | 82 | 1014.6 |
| 20260906090006 | 18 | 150 | 1.6 | 8.0 | 0.00 | 0.53 | 0.00 | 82 | 1014.6 |
| 20260906084509 | 18 | 46 | 3.2 | 6.4 | 0.00 | 0.53 | 0.00 | 82 | 1014.4 |
| 20260906083010 | 18 | 146 | 3.2 | 9.7 | 0.00 | 0.53 | 0.00 | 82 | 1014.3 |
| 20260906081518 | 18 | 354 | 0.0 | 4.8 | 0.00 | 0.53 | 0.00 | 83 | 1014.5 |
| 20260906080023 | 18 | 304 | 0.0 | 8.0 | 0.00 | 0.53 | 0.00 | 82 | 1014.5 |
| 20260906074524 | 18 | 90 | 0.0 | 4.8 | 0.00 | 0.53 | 0.00 | 83 | 1014.3 |
| 20260906073025 | 18 | 126 | 1.6 | 4.8 | 0.00 | 0.53 | 0.00 | 83 | 1014.4 |
| 20260906071529 | 19 | 284 | 0.0 | 8.0 | 0.00 | 0.53 | 0.00 | 83 | 1014.4 |
| 20260906070029 | 19 | 146 | 0.0 | 6.4 | 0.00 | 0.53 | 0.00 | 83 | 1014.4 |
| 20260906064534 | 19 | 203 | 0.0 | 4.8 | 0.00 | 0.53 | 0.00 | 83 | 1014.3 |
| 20260906063015 | 19 | 2 | 3.2 | 6.4 | 0.00 | 0.53 | 0.00 | 84 | 1014.4 |
| 20260906061522 | 18 | 204 | 0.0 | 6.4 | 0.00 | 0.53 | 0.00 | 85 | 1014.5 |
| 20260906060023 | 18 | 286 | 0.0 | 6.4 | 0.00 | 0.53 | 0.00 | 86 | 1014.4 |
| 20260906054525 | 18 | 332 | 0.0 | 4.8 | 0.00 | 0.53 | 0.00 | 87 | 1014.3 |
| 20260906053025 | 18 | 300 | 0.0 | 4.8 | 0.00 | 0.53 | 0.00 | 88 | 1014.0 |
| 20260906051527 | 19 | 266 | 0.0 | 4.8 | 0.00 | 0.53 | 0.00 | 88 | 1013.9 |
| 20260906050028 | 19 | 313 | 1.6 | 4.8 | 0.00 | 0.53 | 0.00 | 88 | 1013.7 |
| 20260906044527 | 20 | 329 | 0.0 | 0.0 | 0.00 | 0.53 | 0.00 | 88 | 1013.6 |
| 20260906043033 | 20 | 292 | 0.0 | 0.0 | 0.00 | 0.53 | 0.00 | 88 | 1013.4 |
| 20260906041529 | 20 | 335 | 0.0 | 0.0 | 0.00 | 0.53 | 0.00 | 88 | 1013.3 |
| 20260906040034 | 21 | 312 | 0.0 | 1.6 | 0.00 | 0.53 | 0.00 | 88 | 1013.5 |
| 20260906034548 | 21 | 68 | 0.0 | 8.0 | 0.00 | 0.53 | 0.53 | 88 | 1013.5 |
| 20260906033008 | 21 | 265 | 0.0 | 11.3 | 0.00 | 0.53 | 0.53 | 87 | 1013.5 |
| 20260906031514 | 21 | 125 | 3.2 | 9.7 | 0.00 | 0.53 | 0.53 | 87 | 1013.4 |
| 20260906030015 | 22 | 68 | 3.2 | 6.4 | 0.00 | 0.53 | 0.53 | 88 | 1013.4 |
| 20260906024517 | 22 | 306 | 0.0 | 9.7 | 0.00 | 0.53 | 0.53 | 88 | 1013.5 |
| 20260906023058 | 22 | 139 | 1.6 | 6.4 | 0.00 | 0.53 | 0.53 | 88 | 1013.4 |
| 20260906021504 | 23 | 71 | 0.0 | 4.8 | 0.00 | 0.53 | 0.53 | 88 | 1013.3 |
| 20260906020005 | 23 | 111 | 1.6 | 14.5 | 0.00 | 0.53 | 0.53 | 88 | 1013.3 |
| 20260906014512 | 23 | 209 | 1.6 | 6.4 | 0.00 | 0.53 | 0.53 | 88 | 1013.0 |
| 20260906013018 | 23 | 211 | 0.0 | 4.8 | 0.00 | 0.53 | 0.53 | 88 | 1012.9 |
| 20260906011517 | 23 | 307 | 0.0 | 0.0 | 0.00 | 0.53 | 0.53 | 87 | 1012.7 |
| 20260906010022 | 23 | 246 | 0.0 | 0.0 | 0.00 | 0.53 | 0.53 | 86 | 1012.5 |
| 20260906004524 | 24 | 200 | 0.0 | 0.0 | 0.00 | 0.53 | 0.53 | 86 | 1012.5 |
| 20260906003030 | 24 | 84 | 0.0 | 4.8 | 0.00 | 0.53 | 0.53 | 86 | 1012.3 |
| 20260906001523 | 24 | 54 | 1.6 | 4.8 | 0.00 | 0.53 | 0.53 | 86 | 1012.2 |
| 20260906000017 | 25 | 92 | 0.0 | 4.8 | 0.00 | 0.53 | 0.53 | 86 | 1012.1 |
| 20260905234519 | 25 | 166 | 1.6 | 8.0 | 0.00 | 0.53 | 0.53 | 86 | 1012.1 |
| 20260905233024 | 25 | 95 | 0.0 | 6.4 | 0.00 | 0.53 | 0.53 | 86 | 1012.0 |
| 20260905231510 | 25 | 96 | 1.6 | 8.0 | 0.00 | 0.53 | 0.53 | 85 | 1011.8 |
| 20260905230005 | 26 | 161 | 0.0 | 4.8 | 0.00 | 0.53 | 0.53 | 85 | 1011.8 |
| 20260905224516 | 26 | 190 | 0.0 | 6.4 | 0.00 | 0.53 | 0.53 | 84 | 1011.9 |
| 20260905223030 | 26 | 155 | 0.0 | 3.2 | 0.00 | 0.53 | 0.53 | 83 | 1011.6 |
| 20260905221522 | 26 | 331 | 0.0 | 6.4 | 0.00 | 0.53 | 0.53 | 83 | 1011.5 |
| 20260905220024 | 26 | 3 | 4.8 | 12.9 | 0.00 | 0.53 | 0.53 | 82 | 1011.4 |
| 20260905214525 | 27 | 169 | 0.0 | 3.2 | 0.00 | 0.53 | 0.53 | 81 | 1011.1 |
| 20260905213033 | 27 | 166 | 0.0 | 4.8 | 0.00 | 0.53 | 0.53 | 82 | 1010.9 |
| 20260905211533 | 27 | 159 | 3.2 | 6.4 | 0.00 | 0.53 | 0.53 | 81 | 1011.2 |
| 20260905210044 | 27 | 171 | 0.0 | 3.2 | 0.00 | 0.53 | 0.53 | 80 | 1011.5 |
| 20260905204539 | 27 | 153 | 3.2 | 9.7 | 0.00 | 0.53 | 0.53 | 80 | 1011.5 |
| 20260905203046 | 27 | 154 | 0.0 | 4.8 | 0.00 | 0.53 | 0.53 | 79 | 1011.6 |
| 20260905201553 | 27 | 90 | 0.0 | 3.2 | 0.00 | 0.53 | 0.53 | 80 | 1011.7 |
| 20260905200113 | 27 | 321 | 0.0 | 6.4 | 0.00 | 2.34 | 0.53 | 80 | 1011.9 |
| 20260905194600 | 28 | 360 | 0.0 | 3.2 | 0.00 | 2.34 | 0.53 | 77 | 1012.2 |